MEXSAT 3

Last updated on Thu Oct 30 2025 00:02:49 GMT+0000 (Coordinated Universal Time)

1 39035U 12075B 25302.53164000 -.00000016 00000+0 00000+0 0 9992 2 39035 0.0108 234.6306 0001768 341.0062 259.1154 1.00273870 4743
UTC large
Height (km)
Speed (km/s)
/
Latitude / Longitude
Inclination (degrees)
Orbital Period (minutes)
Azimuth
Elevation
Range (km)
Doppler Factor

Next 0 passes for location: London (51.5072 / 0.1276)

Sorry there are no passes over London.